This demonstration page uses our WeatherBlox Daily Observations layout. Learn more.

Left ArrowRight Arrow

39.51506, -84.39828

Hourly Observations for May 25, 2022

Temp ( °F °C ) Dew Point ( °F °C ) Humidity (%) Winds ( mph kmh ) Pressure ( in mb ) Visibility ( mi km ) Precip ( " mm )
12:15 am 00:15 Clear 65 18.6 60 15.7 83 83 ESE 6 9 30.14 1021 10 16 0.00 0.00
12:35 am 00:35 Partly Cloudy 64 18 60 15.8 87 87 NE 5 7 30.13 1020 10 16 0.00 0.00
12:55 am 00:55 Clear 64 17.8 60 15.7 88 88 SSE 3 6 30.13 1020 10 16 0.00 0.00
1:15 am 01:15 Clear 63 17 60 15.8 93 93 Calm 30.12 1020 10 16 0.00 0.00
1:35 am 01:35 Clear 62 16.9 61 16.1 95 95 Calm 30.12 1020 10 16 0.00 0.00
1:55 am 01:55 Clear 63 17.3 61 16 92 92 NNE 3 6 30.11 1020 10 16 0.00 0.00
2:15 am 02:15 Clear 62 16.9 61 16.1 95 95 NE 5 7 30.10 1019 10 16 0.00 0.00
2:35 am 02:35 Clear 62 16.7 62 16.5 99 99 Calm 30.10 1019 10 16 0.00 0.00
2:55 am 02:55 Clear 63 17 61 16 94 94 Calm 30.09 1019 10 16 0.00 0.00
3:15 am 03:15 Clear 61 16.3 61 16.2 99 99 Calm 30.08 1019 10 16 0.00 0.00
3:35 am 03:35 Mostly Cloudy 62 16.4 61 16.3 99 99 N 5 7 30.07 1018 10 16 0.00 0.00
3:55 am 03:55 Cloudy 62 16.6 62 16.5 99 99 Calm 30.07 1018 10 16 0.00 0.00
4:15 am 04:15 Cloudy 62 16.8 62 16.7 99 99 ENE 5 7 30.07 1018 10 16 0.00 0.00
4:35 am 04:35 Cloudy 63 17.3 62 16.4 94 94 Calm 30.07 1018 10 16 0.00 0.00
4:55 am 04:55 Cloudy 64 17.7 62 16.4 92 92 E 10 17 30.07 1018 10 16 0.00 0.00
5:15 am 05:15 Cloudy 65 18.5 61 16 85 85 NE 6 9 30.06 1018 10 16 0.00 0.00
5:35 am 05:35 Cloudy 65 18.6 61 16.3 87 87 SSE 5 7 30.08 1019 10 16 0.00 0.00
5:55 am 05:55 Cloudy 65 18.5 61 16.3 87 87 ESE 6 9 30.07 1018 10 16 0.00 0.00
6:15 am 06:15 Mostly Cloudy 65 18.6 61 16.2 86 86 E 3 6 30.07 1018 10 16 0.00 0.00
6:35 am 06:35 Mostly Cloudy 65 18.5 62 16.4 88 88 E 5 7 30.08 1019 10 16 0.00 0.00
6:55 am 06:55 Mostly Cloudy 65 18.6 61 16.2 86 86 SE 6 9 30.09 1019 10 16 0.00 0.00
7:15 am 07:15 Mostly Cloudy 66 18.7 61 16.2 85 85 SE 7 11 30.09 1019 7 11 0.00 0.00
7:35 am 07:35 Mostly Cloudy 66 18.9 61 16.3 85 85 SE 5 7 30.09 1019 10 16 0.00 0.00
7:55 am 07:55 Mostly Cloudy 67 19.2 61 16.3 83 83 ESE 6 9 30.09 1019 10 16 0.00 0.00
8:15 am 08:15 Cloudy 67 19.3 62 16.6 84 84 ESE 6 9 30.09 1019 10 16 0.00 0.00
8:35 am 08:35 Mostly Cloudy 68 19.8 62 16.9 83 83 ESE 6 9 30.08 1018 10 16 0.00 0.00
8:55 am 08:55 Cloudy 68 20.2 62 16.9 81 81 SE 8 13 30.08 1019 10 16 0.00 0.00
9:15 am 09:15 Cloudy 69 20.3 62 16.9 81 81 SE 9 15 30.08 1019 10 16 0.00 0.00
9:35 am 09:35 Cloudy 69 20.3 63 17 81 81 SE 7 11 30.08 1019 10 16 0.00 0.00
9:55 am 09:55 Mostly Cloudy 69 20.5 63 17.2 81 81 SE 9 15 30.08 1019 10 16 0.00 0.00
10:15 am 10:15 Mostly Cloudy 69 20.8 64 17.6 82 82 SE 8 13 30.08 1019 10 16 0.00 0.00
10:35 am 10:35 Mostly Cloudy 70 21.1 64 17.5 80 80 ESE 10 17 30.07 1018 10 16 0.00 0.00
10:55 am 10:55 Cloudy 71 21.5 64 17.7 79 79 ESE 10 17 30.07 1018 10 16 0.00 0.00
11:15 am 11:15 Mostly Cloudy 71 21.8 64 17.9 79 79 SE 10 17 30.07 1018 10 16 0.00 0.00
11:35 am 11:35 Partly Cloudy 74 23.2 66 18.9 77 77 ESE 8 13 30.06 1018 10 16 0.00 0.00
11:55 am 11:55 Partly Cloudy 74 23.2 65 18.6 75 75 SE 10 17 30.06 1018 10 16 0.00 0.00
12:15 pm 12:15 Partly Cloudy 74 23.6 65 18.6 74 74 ESE 12 19 30.05 1017 10 16 0.00 0.00
12:35 pm 12:35 Partly Cloudy 76 24.3 65 18.6 71 71 ESE 10 17 30.04 1017 10 16 0.00 0.00
12:55 pm 12:55 Sunny 77 25.1 66 18.7 68 68 ESE 8 13 30.02 1017 10 16 0.00 0.00
1:15 pm 13:15 Sunny 79 26 66 19 65 65 SE 14 22 30.02 1017 10 16 0.00 0.00
1:35 pm 13:35 Mostly Cloudy 79 26 67 19.2 66 66 SE 12 19 30.01 1016 10 16 0.00 0.00
1:55 pm 13:55 Cloudy 78 25.7 65 18.6 65 65 SE 13 20 30.00 1016 10 16 0.00 0.00
2:15 pm 14:15 Cloudy 80 26.7 67 19.4 64 64 SE 9 15 30.01 1016 10 16 0.00 0.00
2:35 pm 14:35 Mostly Cloudy 78 25.7 65 18.6 65 65 SE 9 15 30.00 1016 10 16 0.00 0.00
2:55 pm 14:55 Mostly Cloudy 80 26.5 67 19.2 64 64 S 14 22 30.00 1016 10 16 0.00 0.00
3:15 pm 15:15 Mostly Cloudy 80 26.9 67 19.3 63 63 SE 12 19 29.99 1016 10 16 0.00 0.00
3:35 pm 15:35 Mostly Cloudy 80 26.9 67 19.3 63 63 SSE 9 15 29.98 1015 10 16 0.00 0.00
3:55 pm 15:55 Mostly Cloudy 81 27.2 67 19.5 63 63 SE 13 20 29.97 1015 10 16 0.00 0.00
4:15 pm 16:15 Partly Cloudy 82 27.8 68 19.8 62 62 SE 14 22 29.96 1014 10 16 0.00 0.00
4:35 pm 16:35 Partly Cloudy 82 27.7 67 19.6 61 61 SE 13 20 29.94 1014 10 16 0.00 0.00
4:55 pm 16:55 Partly Cloudy 82 27.5 68 19.8 63 63 E 12 19 29.93 1013 10 16 0.00 0.00
5:15 pm 17:15 Mostly Cloudy 81 27.4 67 19.2 61 61 ESE 16 26 29.93 1013 10 16 0.00 0.00
5:35 pm 17:35 Mostly Cloudy 80 26.4 67 19.5 66 66 ESE 8 13 29.92 1013 10 16 0.00 0.00
5:55 pm 17:55 Partly Cloudy with Thunderstorms 80 26.5 67 19.6 66 66 ESE 8 13 29.91 1013 7 11 0.00 0.00
6:15 pm 18:15 Mostly Cloudy 79 26 68 19.8 69 69 NW 6 9 29.91 1013 10 16 0.00 0.00
6:35 pm 18:35 Cloudy with Nearby Thunderstorms 80 26.8 68 19.8 66 66 ESE 7 11 29.91 1013 10 16 0.00 0.00
6:55 pm 18:55 Cloudy with Nearby Thunderstorms 81 27 67 19.3 63 63 S 14 22 29.91 1013 10 16 0.00 0.00
7:15 pm 19:15 Mostly Cloudy 78 25.3 69 20.8 76 76 Calm 29.91 1013 10 16 0.00 0.00
7:35 pm 19:35 Mostly Cloudy 80 26.9 67 19.7 65 65 ESE 10 17 29.90 1012 10 16 0.00 0.00
7:55 pm 19:55 Cloudy with Light Rain 74 23.1 69 20.8 87 87 SE 10 17 29.92 1013 10 16 0.00 0.00
8:15 pm 20:15 Cloudy 74 23.5 71 21.5 89 89 ESE 8 13 29.91 1013 10 16 0.00 0.00
8:35 pm 20:35 Cloudy 74 23.6 72 22 91 91 SE 8 13 29.91 1013 10 16 0.00 0.00
8:55 pm 20:55 Cloudy 74 23.6 72 22.1 91 91 SE 6 9 29.91 1013 10 16 0.00 0.00
9:15 pm 21:15 Cloudy 75 24 71 21.7 87 87 SSE 13 20 29.93 1013 10 16 0.00 0.00
9:35 pm 21:35 Mostly Cloudy 73 22.9 70 20.9 89 89 SSE 6 9 29.93 1013 10 16 0.00 0.00
9:55 pm 21:55 Cloudy 73 22.9 70 20.9 89 89 SE 5 7 29.93 1013 10 16 0.00 0.00
10:15 pm 22:15 Mostly Cloudy 72 22.4 70 21.1 92 92 SSE 3 6 29.93 1014 7 11 0.00 0.00
10:35 pm 22:35 Mostly Cloudy 72 22.2 70 21.3 95 95 SE 5 7 29.93 1014 10 16 0.00 0.00
10:55 pm 22:55 Cloudy with Heavy Rain 72 22 71 21.7 98 98 ESE 9 15 29.94 1014 4 6 0.05 1.27
11:15 pm 23:15 Cloudy 71 21.8 70 20.9 95 95 S 3 6 29.93 1014 10 16 0.00 0.00
11:35 pm 23:35 Cloudy 71 21.4 68 19.8 91 91 SSE 6 9 29.93 1014 7 11 0.00 0.00
11:55 pm 23:55 Mostly Cloudy 70 21.2 69 20.3 95 95 S 3 6 29.94 1014 10 16 0.00 0.00

Powered by AerisWeather